Regional Weather Roundup
Issued by NWS

Home | Current Version | Previous Version | Text Only | Print | Product List | Glossary On
Versions: 1 2 3 4 5 6 7 8 9 10 11 12 13 14 15 16 17 18 19 20 21 22 23 24 25 26 27 28 29 30 31 32 33 34 35 36 37 38 39 40 41 42 43 44 45 46 47 48 49 50
000
ASUS42 KKEY 301610
RWRKEY

FLORIDA REGIONAL WEATHER ROUNDUP FOR THE FLORIDA KEYS
NATIONAL WEATHER SERVICE KEY WEST FLORIDA
1200 PM EDT TUE SEP 30 2014

...SOUTH FLORIDA AND THE KEYS...

CITY           SKY/WX    TMP DP  RH WIND       PRES   REMARKS
FORT MYERS     SUNNY     88  74  63 W10       29.88R HX  96
SW REGIONAL AP MOSUNNY   86  73  65 W9        29.88S HX  93
NAPLES         MOSUNNY   88  76  67 W9        29.89R HX  99
MIAMI          PTSUNNY   89  75  63 S8        29.88F HX  99
WEST KENDALL   MOSUNNY   90  74  59 W9        29.88F HX  99
HOMESTEAD      SUNNY     89  74  62 SW12      29.89S HX  98
MARATHON       PTSUNNY   90  78  68 SW10      29.91S HX 104
BOCA CHICA NAS MOSUNNY   87  75  67 SW10      29.92R HX  96
KEY WEST INTL  SUNNY     86  75  69 SW9       29.92S HX  95

...INTERNATIONAL WEATHER...

CITY           SKY/WX    TMP DP  RH WIND       PRES   REMARKS
NASSAU BAHAMAS NOT AVBL
CANCUN MEXICO  PTSUNNY   86  77  74 SW3       29.92S HX  97
COZUMEL MEXICO PTSUNNY   82  75  78 CALM      29.92S

ADJACENT COASTAL WATERS...

STATION/POSITION TIME  SKY/WX   TEMP    WIND        PRES    WAVE
                                AIR SEA DIR/SP/G            HT/PER
                 (UTC)          (F)     (DEG/KT/KT) (MB)    (FT/S)
PULASKI SHOAL LI 1500            84     210/  7/  8 1013.0R
SAND KEY         1539            83     230/  8/ 10 1013.2R
SOMBRERO KEY     1600            83     240/ 10/ 11 1013.5F
LONG KEY         1456            84 86  230/ 10/ 12 1013.5R
MOLASSES REEF    1600            83 86  230/ 13/ 14 1012.5S
FOWEY ROCKS      1600            85 85  240/  9/ 10 1012.3F
Buoy 42080       NOT AVBL

$$


USA.gov is the U.S. government's official web portal to all federal, state and local government web resources and services.